Tracking 29528 objects as of 12-Sep-2024
HD Live streaming from Space Station
objects crossing your sky now

COSMOS 2142

Track COSMOS 2142 now!
10-day predictions
COSMOS 2142 is classified as:


NORAD ID: 21230
Int'l Code: 1991-029A
Perigee: 967.2 km
Apogee: 1,022.7 km
Inclination: 83.0 °
Period: 104.9 minutes
Semi major axis: 7365 km
RCS: 2.0441 m2 (large)
Launch date: April 16, 1991
Source: Commonwealth of Independent States (former USSR) (CIS)
Launch site: PLESETSK MISSILE AND SPACE COMPLEX (PKMTR)
Your satellite tracking list
Your tracking list is empty




NASA's NSSDC Master Catalog

Two Line Element Set (TLE):
1 21230U 91029A   24255.79358517  .00000188  00000-0  18585-3 0  9999
2 21230  82.9607 353.2537 0037691 196.7092 277.6836 13.73284971674045
Source of the keplerian elements: AFSPC